Regional Weather Roundup
Issued by NWS

Home | Current Version | Previous Version | Text Only | Print | Product List | Glossary Off
Versions: 1 2 3 4 5 6 7 8 9 10 11 12 13 14 15 16 17 18 19 20 21 22 23 24 25 26 27 28 29 30 31 32 33 34 35 36 37 38 39 40 41 42 43 44 45 46 47 48 49 50

000
ASUS43 KLOT 300704
RWRIL

ILLINOIS REGIONAL WEATHER ROUNDUP
NATIONAL WEATHER SERVICE CHICAGO/ROMEOVILLE IL
200 AM CDT MON MAY 30 2016

NOTE: "FAIR" INDICATES FEW OR NO CLOUDS BELOW 12,000 FEET WITH NO
SIGNIFICANT WEATHER AND/OR OBSTRUCTIONS TO VISIBILITY.

* THESE STATIONS ARE NOT UNDER NWS QUALITY CONTROL. THEY ALSO MAY NOT
  REPORT WEATHER SUCH AS PRECIPITATION OR FOG.

ILZ001-002-007-009-015-016-024-300800-
NORTHWEST ILLINOIS

CITY           SKY/WX    TMP DP  RH WIND       PRES   REMARKS
MOLINE         CLOUDY    65  57  75 CALM      30.00F
STERLING*      LGT RAIN  65  62  90 CALM      30.01F
$$

ILZ003-004-008-010-011-017-018-300800-
NORTH CENTRAL ILLINOIS

CITY           SKY/WX    TMP DP  RH WIND       PRES   REMARKS
ROCKFORD       MOCLDY    67  59  75 SW3       30.03S
FREEPORT*      PTCLDY    65  58  75 SW8       30.04R
ROCHELLE*      MOCLDY    64  59  84 CALM      30.02S
$$

ILZ005-006-012>014-019>023-300800-
NORTHEAST ILLINOIS

CITY           SKY/WX    TMP DP  RH WIND       PRES   REMARKS
CHICAGO-OHARE  CLEAR     67  58  72 W7        30.00S
CHICAGO-MIDWAY PTCLDY    69  57  65 W5        30.00S
AURORA         CLEAR     62  59  90 CALM      30.01F
LANSING*       CLEAR     63  57  81 W5        30.01S
WAUKEGAN       PTCLDY    67  58  72 VRB3      29.99S
DUPAGE AIRPORT CLEAR     62  56  80 CALM      30.00F
WHEELING       CLEAR     68  56  65 W6        30.01S
NORTHERLY ISL    N/A     70  56  61 SW3         N/A
NORTHERLY ISL    N/A     70  56  61 SW3         N/A
$$

LMZ740>746-300800-
SOUTHERN LAKE MICHIGAN

STATION/POSITION SKY/WX   TEMP    WIND        PRES    VSBY  WAVE
                          AIR SEA DIR/SP/G                  HT/PER
                          (F)     (DEG/KT/KT) (MB)    (MI)  (FT/S)
SOUTHERN BUOY              56 51  230/  8/  8 1014.8          1
WILMETTE HARBOR            62 56  260/  6/  6   N/A           0
HARRISON CRIB              74     260/ 11/ 11   N/A
BURNHAM HARBOR             72     250/  3/  6   N/A
CALUMET HARBOR             71     230/  4/  5 1015.5F
BURNS HARBOR               70     220/  6/  8 1016.3F
MICHIGAN CITY              69     190/  7/  7   N/A
MICHIGAN CITY 6N           63 59  230/  6/  6   N/A           1
ST. JOSEPH                 64 62  200/  6/  8   N/A           1
$$

ILZ025>027-034>036-040-047-049-050-058-095>099-300800-
WEST-CENTRAL ILLINOIS

CITY           SKY/WX    TMP DP  RH WIND       PRES   REMARKS
QUINCY         CLOUDY    66  62  87 S5        30.04R
MACOMB*        CLOUDY    65  61  86 SW6       30.05S
PITTSFIELD*    CLOUDY    68  64  88 CALM      30.06R
$$

ILZ028>032-037-038-041>044-048-051>054-059>061-300800-
CENTRAL ILLINOIS

CITY           SKY/WX    TMP DP  RH WIND       PRES   REMARKS
BLOOMINGTON    CLOUDY    68  61  78 W8        30.05F
DECATUR        CLOUDY    64  57  78 CALM      30.04S
PEORIA         CLOUDY    64  57  78 CALM      30.03F
LINCOLN*       CLOUDY    66  61  84 CALM      30.03S
SPRINGFIELD    CLOUDY    65  61  87 CALM      30.04S
TAYLORVILLE    NOT AVBL
$$

ILZ033-039-045-046-055>057-062-063-300800-
EAST-CENTRAL ILLINOIS

CITY           SKY/WX    TMP DP  RH WIND       PRES   REMARKS
CHAMPAIGN      CLEAR     64  57  78 NW6       30.04F
MATTOON        PTCLDY    63  58  83 CALM      30.03F
$$

ILZ079-100>102-300800-
SOUTHWEST ILLINOIS

CITY           SKY/WX    TMP DP  RH WIND       PRES   REMARKS
ALTON          CLOUDY    65  62  87 CALM      30.05R
BELLEVILLE     PTCLDY    67  66  99 W1        30.04R
CAHOKIA*       CLOUDY    66  63  90 CALM      30.05S
SPARTA*        CLEAR     68  63  85 CALM      30.06S
$$

ILZ064>066-069>071-074>076-080>082-084>086-088>090-092>094-300800-
SOUTH-CENTRAL ILLINOIS

CITY           SKY/WX    TMP DP  RH WIND       PRES   REMARKS
CARBONDALE     CLEAR     64  62  93 SW3       30.05S
EFFINGHAM*     CLEAR     64  64 100 CALM      30.06S
MT. VERNON     CLOUDY    61  55  82 CALM      30.06S VSB 1/2
SALEM*         CLEAR     66  63  88 CALM      30.05S
$$

ILZ067-068-072-073-078-083-087-091-300800-
SOUTHEAST ILLINOIS

CITY           SKY/WX    TMP DP  RH WIND       PRES   REMARKS
LAWRENCEVILLE  CLOUDY    67  62  84 CALM      30.04S
FLORA*         CLOUDY    66  63  90 CALM      30.04S
HARRISBURG*    CLEAR     65  64  97 CALM      30.05S
ROBINSON*      CLOUDY    63  61  94 CALM      30.05S
$$

ABBREVIATIONS USED IN REMARKS
   TC - TEMPERATURE IN CELSIUS
  WCI - WIND CHILL INDEX
   HX - HEAT INDEX
  VSB - VISIBILITY
$$




USA.gov is the U.S. government's official web portal to all federal, state and local government web resources and services.